This is the latest recevied weather packets stored in our database for station/object KB9GXK. If no packets are shown the sender has not sent any weather packets the latest 10 day(s).
| Time | Temp. | Humidity | Pressure | Rain* | Wind** | Luminosity | Snow |
|---|---|---|---|---|---|---|---|
| 1778023124 | 13.33° C | 35% | 1009 hPa | 0 mm | - | 54 W/m² | - |
| 1778022822 | 13.89° C | 35% | 1009 hPa | 0 mm | - | 55 W/m² | - |
| 1778022520 | 13.89° C | 36% | 1009.1 hPa | 0 mm | - | 61 W/m² | - |
| 1778022217 | 13.89° C | 36% | 1009.1 hPa | 0 mm | - | 67 W/m² | - |
| 1778021913 | 13.89° C | 36% | 1009.2 hPa | 0 mm | - | 74 W/m² | - |
| 1778021611 | 14.44° C | 36% | 1009.3 hPa | 0 mm | - | 90 W/m² | - |
| 1778021305 | 14.44° C | 36% | 1009.2 hPa | 0 mm | - | 112 W/m² | - |
| 1778021004 | 14.44° C | 35% | 1009.3 hPa | 0 mm | - | 129 W/m² | - |
| 1778020700 | 13.89° C | 37% | 1009.1 hPa | 0 mm | - | 122 W/m² | - |
| 1778020398 | 14.44° C | 34% | 1009.2 hPa | 0 mm | - | 127 W/m² | - |
| 1778020093 | 14.44° C | 35% | 1009.3 hPa | 0 mm | - | 137 W/m² | - |
| 1778019790 | 14.44° C | 35% | 1009.1 hPa | 0 mm | - | 146 W/m² | - |
| 1778019487 | 14.44° C | 34% | 1009.2 hPa | 0 mm | - | 157 W/m² | - |
| 1778019184 | 14.44° C | 35% | 1009.2 hPa | 0 mm | - | 141 W/m² | - |
| 1778018880 | 14.44° C | 34% | 1009.2 hPa | 0 mm | - | 146 W/m² | - |
| 1778018578 | 14.44° C | 34% | 1009.3 hPa | 0 mm | - | 174 W/m² | - |
| 1778018276 | 14.44° C | 34% | 1009.3 hPa | 0 mm | - | 155 W/m² | - |
| 1778017973 | 14.44° C | 34% | 1009.2 hPa | 0 mm | - | 170 W/m² | - |
| 1778017671 | 14.44° C | 32% | 1009.1 hPa | 0 mm | - | 196 W/m² | - |
| 1778017368 | 15° C | 33% | 1009.1 hPa | 0 mm | - | 178 W/m² | - |
| 1778017065 | 15.56° C | 32% | 1009.2 hPa | 0 mm | - | 157 W/m² | - |
| 1778016763 | 15.56° C | 32% | 1009.3 hPa | 0 mm | - | 385 W/m² | - |
| 1778016458 | 14.44° C | 32% | 1009.1 hPa | 0 mm | - | 311 W/m² | - |
| 1778016156 | 13.89° C | 34% | 1009.1 hPa | 0 mm | - | 255 W/m² | - |
| 1778015853 | 15° C | 32% | 1009.1 hPa | 0 mm | - | 203 W/m² | - |
* Rain latest hour (hover to see other rain measurements)
** Current wind speed in m/s (hover to see current wind gust speed)